Temperature
21 18 17 18 19 20 20 19 18 18 16 14 14 13 13 13 13 12 12 12 12 12 13 14 14 15 15 16 17 17 17 18 18 18 18 18 18 19 19 19 19 18 18 18
18 17 18 19 19 18 19 18 18 17 16 14 13 13 13 13 12 12 12 11 11 12 13 13 14 14 14 15 16 16 17 17 17 17 18 18 18 18 19 19 18 18 18 18
17 18 19 18 17 17 17 17 17 17 15 14 13 13 12 12 13 12 12 12 11 11 11 12 13 13 14 14 15 15 16 16 16 17 17 17 18 18 18 18 18 18 18 18
17 17 17 16 16 16 16 17 17 17 14 13 13 12 11 11 11 12 12 11 11 11 11 11 12 12 13 13 14 14 15 15 15 16 16 17 17 17 18 18 18 18 18 18
17 17 16 16 16 16 16 15 15 15 13 11 11 11 11 10 10 11 11 11 11 11 11 11 11 12 12 13 13 13 14 14 15 15 15 16 16 16 16 17 17 17 17 17
16 17 16 16 16 15 14 15 14 12 11 11 11 11 11 10 10 11 11 11 11 11 11 11 11 12 12 12 13 13 13 14 14 14 15 15 15 15 16 16 16 16 16 16
16 15 15 16 14 14 12 13 13 13 11 11 11 11 11 11 11 11 11 11 11 11 11 11 11 11 12 12 13 13 13 13 13 14 14 14 14 15 15 15 15 16 16 16
15 14 15 15 14 14 12 12 12 13 12 11 11 11 11 12 12 12 11 11 11 11 11 11 11 11 11 12 12 12 13 13 13 13 13 14 14 14 14 15 15 15 15 15
14 14 16 15 14 14 13 11 11 10 11 11 11 11 11 12 11 12 11 11 11 11 11 11 11 11 11 12 12 12 12 13 13 13 13 13 14 14 14 14 15 15 15 15
14 14 14 14 14 13 12 11 9 10 11 11 11 11 10 10 10 11 11 11 11 11 11 11 11 11 11 11 12 12 12 12 12 13 13 13 13 13 14 14 14 14 14 14
14 13 13 13 13 12 12 11 9 8 9 10 10 10 11 10 10 10 11 11 11 11 11 11 11 11 11 11 12 12 12 12 12 13 13 13 13 13 13 13 14 14 14 14
12 11 12 13 14 13 12 11 10 10 9 9 9 10 11 11 11 11 11 12 12 12 12 12 11 11 11 11 12 12 12 12 12 12 12 13 13 13 13 13 13 14 14 14
13 12 12 13 13 13 12 11 9 8 8 8 9 10 12 11 12 12 12 13 13 12 12 12 12 12 11 11 11 11 11 12 12 12 12 13 13 13 13 13 13 13 13 13
13 11 12 14 13 12 13 12 11 10 9 9 10 10 11 11 11 12 13 13 13 13 13 12 12 12 12 11 11 11 11 11 12 12 12 12 12 12 13 13 13 13 13 13
12 12 13 13 13 13 13 13 12 11 10 10 11 11 11 11 12 13 13 13 13 13 13 13 12 12 12 12 11 11 11 11 11 12 12 12 12 12 12 12 12 13 13 13
12 13 13 14 14 14 13 13 13 12 11 11 11 11 12 13 13 13 13 13 13 13 13 13 13 12 12 12 11 11 11 11 11 11 11 11 11 12 12 12 12 12 12 12
11 12 12 12 13 13 13 13 12 12 12 12 11 12 13 13 13 14 14 14 13 13 13 13 13 13 12 12 11 11 11 11 11 11 11 11 11 11 11 11 11 11 11 12
11 11 10 11 13 14 14 14 13 13 13 12 12 12 13 14 14 14 14 14 14 14 13 13 13 13 12 12 12 11 11 11 11 11 11 11 11 11 11 11 11 11 11 11
11 11 10 10 12 13 14 13 13 13 13 13 12 13 14 14 14 14 14 14 14 14 14 14 13 13 13 12 12 12 11 11 11 11 11 11 10 10 10 10 10 10 10 11
11 10 10 11 14 15 15 14 15 14 13 14 14 14 14 13 11 12 14 14 14 14 14 14 14 13 13 13 12 12 12 11 11 11 11 10 10 10 10 10 10 10 10 10
13 11 11 11 13 13 14 14 15 13 13 15 15 15 14 14 13 15 14 14 14 14 14 14 14 14 13 13 13 12 12 12 11 11 11 11 10 10 10 10 10 10 10 10
12 11 11 10 12 13 14 13 13 13 16 16 16 16 15 15 15 15 15 14 14 14 14 14 14 14 14 13 13 12 12 12 11 11 11 11 10 10 10 10 10 10 10 10
11 11 10 11 13 15 15 16 17 17 17 16 16 16 15 15 15 15 15 15 15 15 15 15 14 14 14 13 13 13 12 12 11 11 11 11 10 10 10 10 10 10 10 9
11 11 10 10 11 14 15 16 17 17 17 17 17 16 16 15 15 15 15 15 15 15 15 15 15 14 14 14 13 13 12 12 12 11 11 11 10 10 10 10 10 10 10 9
12 10 11 12 12 14 15 16 17 17 17 17 16 16 16 16 15 15 15 15 15 15 15 15 15 15 14 14 13 13 13 12 12 11 11 11 10 10 10 10 10 9 9 9
12 11 12 13 16 15 18 18 17 17 17 17 16 16 16 16 16 15 15 15 15 15 15 15 15 15 14 14 14 13 13 12 12 11 11 11 10 10 10 10 10 9 9 9
Wind_Speed
8 9 7 7 5 3 4 4 4 4 5 8 11 11 9 11 14 15 14 13 14 14 12 12 12 12 11 11 10 10 9 9 7 4 3 3 5 6 6 6 7 9 9 9
9 8 6 6 7 7 5 5 3 4 6 7 9 9 6 8 11 11 12 13 14 15 15 15 14 12 11 10 10 10 9 9 7 5 4 4 4 4 6 6 7 9 9 8
9 4 6 6 8 7 4 4 1 1 4 5 4 4 7 5 7 10 11 10 12 14 15 15 14 13 12 11 11 10 10 10 9 7 5 4 3 2 3 5 6 7 9 9
8 5 6 7 7 6 2 2 2 2 4 2 3 0 6 8 9 14 15 14 14 14 14 14 14 14 13 12 11 10 9 9 9 8 5 5 3 4 4 3 4 5 6 8
5 4 7 8 5 5 3 4 2 2 5 5 8 4 5 7 10 15 15 15 14 14 14 14 14 13 12 11 10 9 9 9 9 8 6 5 4 3 3 2 3 4 4 5
5 4 5 4 3 3 3 3 6 6 5 5 5 3 5 6 10 15 14 15 14 14 14 14 13 12 10 9 9 8 8 8 8 8 7 6 5 3 2 1 2 3 2 3
6 7 7 5 7 8 9 6 5 6 6 2 4 3 3 6 8 9 13 14 14 13 13 14 15 14 13 12 10 9 8 8 8 8 7 7 6 5 4 2 1 2 2 2
4 5 7 7 4 3 5 5 5 2 1 2 3 3 4 6 7 8 9 11 13 14 13 14 14 13 12 12 11 10 9 8 8 7 7 7 7 5 4 4 3 2 2 2
5 1 3 5 5 3 4 4 3 6 3 2 3 3 4 6 10 10 12 13 14 14 14 14 14 13 12 12 10 10 9 8 8 8 7 7 8 7 6 6 5 4 3 3
6 5 4 5 6 8 5 4 5 5 3 1 3 3 5 10 13 13 13 13 14 14 14 14 13 13 12 11 10 9 9 8 7 8 8 7 8 8 7 7 7 6 5 4
4 5 4 5 6 6 6 5 6 5 4 4 1 4 4 6 9 11 12 12 11 12 12 12 12 12 11 10 10 10 10 9 9 9 8 8 8 8 7 7 7 6 5 5
4 5 3 2 1 1 4 4 3 4 2 3 2 4 6 6 8 8 10 10 10 10 10 9 10 10 10 11 11 11 11 10 9 9 8 8 8 8 8 8 7 7 6 6
5 6 4 4 5 5 5 4 4 6 5 3 2 5 4 5 7 7 8 10 9 9 9 9 9 9 9 10 10 11 11 10 10 9 9 10 10 9 9 9 8 8 7 7
5 5 4 4 3 1 2 2 3 4 4 3 3 5 7 8 8 9 9 9 9 8 7 8 9 9 9 8 9 9 10 10 10 10 10 10 10 9 9 9 9 9 8 8
5 5 4 3 3 2 1 1 2 3 5 5 5 4 7 7 6 7 7 8 8 8 8 8 8 8 8 8 9 8 9 9 9 9 10 9 9 9 9 10 10 10 10 10
4 5 3 2 1 2 1 2 2 3 4 4 2 5 7 5 4 5 7 7 7 8 8 8 7 7 7 7 7 7 8 8 8 9 9 9 9 9 10 9 9 10 10 9
3 5 4 0 2 4 5 7 7 5 5 6 6 6 4 3 4 5 6 6 6 7 7 7 6 5 5 5 5 6 6 6 7 8 8 8 8 8 8 9 9 10 9 9
7 5 4 3 2 4 7 4 7 6 6 8 6 5 5 5 4 5 5 4 6 6 6 6 5 5 4 4 4 5 6 6 7 7 8 8 8 7 7 8 9 8 7 8
5 7 5 4 2 7 6 4 7 6 6 8 8 6 4 2 3 5 4 3 4 4 4 4 4 3 3 3 3 4 6 6 7 7 7 7 7 7 8 8 8 7 7 8
6 5 6 4 2 5 6 5 6 5 5 7 10 9 6 5 1 4 5 4 5 5 3 4 4 2 2 3 3 4 5 5 6 5 5 6 6 7 7 7 6 6 6 7
2 3 4 4 5 8 6 6 9 5 7 6 10 9 9 8 6 5 5 4 4 4 4 4 4 3 3 2 2 3 3 4 3 4 5 6 6 6 6 6 6 6 6 7
8 6 6 5 4 8 6 10 9 10 3 8 9 9 9 8 5 4 3 2 4 4 4 4 4 4 3 2 2 2 2 1 3 5 6 7 7 6 6 6 7 7 7 7
8 9 7 9 8 5 9 8 7 7 7 8 9 8 8 7 5 3 1 1 3 4 4 3 3 3 4 3 1 1 0 2 4 5 6 6 6 6 6 6 6 6 7 6
5 4 5 5 8 6 9 6 5 7 8 8 9 8 9 7 6 5 2 1 2 3 3 3 3 3 4 3 2 0 2 4 5 5 4 4 5 5 5 5 5 5 6 6
7 8 5 6 7 4 7 10 9 8 7 8 7 8 9 8 7 5 3 2 2 2 3 2 2 2 3 3 3 2 3 5 5 4 3 3 3 3 3 4 4 4 4 3
7 9 9 9 8 8 8 10 11 10 10 10 10 8 7 8 7 6 4 3 2 2 2 2 2 1 2 2 3 2 2 5 5 4 3 2 1 1 1 2 2 3 3 6
Wind_Direction
29 53 37 7 25 80 95 95 86 69 95 80 88 78 47 31 31 24 15 9 2 353 346 348 348 346 342 342 341 339 344 341 338 332 309 265 238 235 225 216 212 210 204 200
51 35 358 22 35 55 75 88 68 64 90 102 105 78 42 34 30 19 7 359 354 346 346 347 345 342 339 334 333 332 336 334 329 315 293 266 255 242 229 218 206 207 199 195
90 7 4 56 44 46 55 96 85 147 78 86 119 64 15 2 9 11 7 355 350 345 341 339 338 335 334 333 332 331 330 331 326 318 306 297 273 254 232 217 208 202 194 189
76 18 35 55 42 32 353 348 300 206 122 63 1 156 360 335 344 359 356 353 347 341 338 337 335 331 329 326 325 325 327 329 328 328 324 313 288 271 259 242 215 195 191 187
73 29 41 39 6 3 305 337 28 108 122 73 24 63 335 339 351 347 344 344 342 338 335 335 331 326 322 323 325 325 326 331 332 334 334 327 313 295 282 253 195 188 185 182
54 28 48 358 348 13 342 57 61 54 72 56 347 32 350 345 333 331 335 338 338 336 336 333 332 330 327 330 333 331 332 334 339 345 348 349 343 335 322 274 199 178 164 162
30 14 3 12 12 9 35 64 42 24 34 26 335 56 328 308 321 323 326 330 333 335 338 338 341 342 340 341 342 342 344 342 346 353 358 359 360 1 1 340 181 150 146 155
82 9 358 12 24 344 31 81 117 140 151 312 4 13 290 295 315 321 327 332 339 343 342 341 341 341 341 343 346 348 352 353 355 0 3 7 10 14 18 23 44 75 98 124
126 103 349 29 25 55 57 57 118 120 108 68 357 334 317 333 340 342 343 345 344 343 343 344 345 346 343 345 349 353 358 2 2 5 9 17 19 23 27 32 40 49 56 76
123 114 350 338 31 35 83 102 74 82 107 59 345 344 318 324 329 334 338 339 337 341 346 348 349 349 347 350 355 1 4 6 8 11 16 23 21 23 26 34 38 39 42 52
98 109 6 30 35 352 21 50 76 82 97 126 15 306 265 286 305 317 321 328 330 338 344 347 349 351 352 0 6 10 11 14 16 16 18 21 22 23 27 31 30 34 40 44
103 105 71 2 333 71 94 80 114 117 95 106 135 277 284 290 299 307 314 322 328 332 337 340 343 349 358 7 9 12 15 18 16 16 21 24 22 24 28 29 27 30 37 39
120 101 84 358 352 13 53 56 87 106 107 108 127 281 305 326 321 320 321 325 328 330 337 342 347 351 358 5 9 14 17 17 16 22 27 29 27 28 30 29 29 33 38 39
104 78 124 148 210 206 54 58 114 109 117 150 216 265 307 321 321 322 325 326 329 336 342 348 348 351 359 6 9 12 15 15 19 25 30 30 26 26 30 33 35 35 38 41
89 85 77 83 93 104 99 115 135 132 162 168 218 244 270 284 293 304 315 328 339 346 349 351 350 350 357 4 6 9 12 12 17 24 28 25 23 28 32 35 36 37 38 40
73 108 89 47 41 55 306 221 169 158 170 192 230 263 255 270 292 311 324 334 339 340 343 347 351 353 356 360 1 7 9 7 17 26 24 20 26 31 31 31 34 38 37 37
86 117 110 233 340 6 284 223 195 200 197 181 207 237 246 266 292 302 312 324 325 329 333 341 344 345 343 351 359 4 1 9 23 26 23 21 26 32 27 32 36 35 33 36
120 104 109 114 70 274 249 216 176 185 216 203 215 231 222 231 267 287 286 301 315 324 332 335 335 338 341 353 4 7 15 21 26 26 23 19 25 31 30 35 34 28 28 33
122 127 117 124 211 281 280 190 169 176 244 208 202 217 217 206 2 321 296 302 293 303 308 308 312 312 332 357 6 22 24 23 27 24 22 19 25 33 34 34 28 22 30 34
72 94 112 132 200 254 253 190 152 114 269 216 185 194 183 128 88 275 294 316 319 329 327 328 334 344 356 358 29 37 25 28 23 19 22 26 34 41 39 34 29 25 31 31
112 81 130 165 229 262 239 148 122 147 244 196 175 179 170 179 204 237 296 318 335 340 343 353 3 358 333 349 51 42 26 25 21 39 41 37 38 46 42 39 33 29 31 31
174 166 186 163 205 259 184 147 178 210 191 162 169 173 178 201 222 242 267 325 351 354 354 1 3 348 342 9 60 43 18 39 75 68 58 47 39 42 42 44 38 32 33 34
193 189 185 190 212 235 184 193 200 168 164 173 172 179 176 182 199 200 198 338 341 349 351 351 353 351 357 9 57 50 310 128 106 84 69 59 53 45 40 45 41 36 33 35
240 171 172 240 257 233 215 224 193 180 177 174 170 168 168 175 185 184 189 277 327 337 343 345 4 13 358 354 18 18 156 140 122 105 88 72 64 52 41 41 40 42 35 32
217 169 192 247 265 255 224 206 194 182 164 154 158 169 174 172 180 184 194 230 280 313 325 340 353 345 335 345 6 29 133 141 130 123 116 97 80 71 51 44 37 37 30 29
191 176 178 218 214 191 219 198 176 166 172 170 164 169 177 176 181 180 193 216 235 284 315 339 348 345 339 354 3 16 137 150 148 149 156 156 147 121 68 31 11 9 20 32
Height
1530 1538 1548 1546 1543 1542 1544 1549 1553 1554 1555 1560 1565 1569 1569 1567 1563 1561 1559 1556 1553 1550 1547 1543 1539 1536 1533 1530 1527 1524 1521 1519 1518 1517 1517 1517 1518 1519 1520 1521 1523 1525 1527 1529
1542 1550 1548 1545 1544 1545 1548 1553 1556 1557 1557 1562 1569 1571 1570 1568 1567 1565 1562 1558 1554 1549 1545 1541 1538 1535 1531 1528 1525 1522 1519 1517 1515 1513 1512 1512 1512 1513 1514 1516 1517 1519 1522 1523
1550 1554 1549 1549 1551 1552 1553 1555 1556 1558 1561 1564 1568 1573 1573 1569 1568 1565 1563 1559 1555 1551 1545 1540 1536 1533 1529 1526 1523 1520 1517 1514 1512 1510 1508 1507 1507 1508 1509 1510 1511 1513 1516 1518
1552 1553 1552 1553 1555 1555 1559 1554 1554 1555 1564 1574 1572 1580 1578 1573 1569 1565 1562 1558 1554 1550 1545 1540 1535 1531 1527 1524 1521 1517 1515 1512 1509 1507 1504 1503 1503 1503 1503 1505 1506 1508 1510 1512
1557 1555 1556 1557 1557 1555 1556 1554 1555 1557 1566 1577 1580 1582 1584 1575 1572 1567 1563 1559 1555 1550 1545 1539 1534 1530 1526 1522 1519 1516 1513 1510 1507 1504 1502 1500 1499 1499 1499 1500 1501 1502 1504 1507
1557 1556 1557 1558 1556 1556 1556 1556 1559 1566 1573 1587 1587 1586 1587 1581 1577 1570 1565 1560 1555 1549 1544 1539 1534 1529 1525 1521 1518 1515 1511 1508 1505 1503 1500 1499 1497 1497 1496 1497 1498 1499 1501 1503
1563 1562 1560 1559 1559 1558 1560 1567 1577 1579 1589 1591 1585 1586 1588 1579 1576 1572 1567 1561 1555 1550 1544 1538 1532 1528 1524 1520 1516 1513 1510 1508 1504 1502 1500 1498 1497 1496 1495 1495 1496 1497 1499 1500
1569 1575 1566 1563 1565 1566 1567 1572 1583 1586 1591 1593 1587 1589 1586 1578 1575 1571 1567 1561 1556 1550 1544 1539 1533 1528 1524 1520 1516 1513 1510 1507 1505 1502 1500 1498 1497 1496 1495 1495 1495 1496 1498 1499
1572 1574 1566 1565 1565 1565 1569 1576 1576 1586 1589 1593 1591 1588 1582 1576 1573 1570 1566 1561 1556 1551 1545 1540 1534 1530 1525 1521 1517 1514 1511 1508 1506 1504 1502 1500 1499 1498 1496 1496 1496 1497 1497 1498
1564 1573 1570 1568 1566 1569 1571 1575 1581 1587 1593 1595 1593 1592 1591 1581 1576 1571 1567 1562 1557 1552 1547 1541 1536 1531 1527 1522 1519 1516 1513 1510 1508 1506 1504 1503 1501 1500 1499 1498 1498 1498 1498 1499
1562 1573 1576 1573 1575 1577 1576 1579 1586 1593 1594 1598 1599 1598 1584 1581 1577 1573 1568 1564 1559 1555 1550 1545 1540 1535 1530 1526 1522 1519 1516 1513 1511 1509 1507 1506 1504 1503 1502 1501 1501 1500 1500 1500
1565 1575 1582 1577 1574 1573 1575 1580 1584 1591 1598 1599 1600 1599 1579 1579 1576 1573 1569 1565 1561 1557 1553 1548 1543 1538 1534 1529 1526 1522 1519 1517 1514 1513 1511 1509 1507 1506 1505 1504 1503 1502 1502 1502
1564 1575 1585 1583 1583 1578 1578 1581 1584 1589 1596 1599 1600 1596 1578 1577 1575 1572 1569 1566 1562 1559 1555 1550 1546 1542 1538 1534 1530 1527 1523 1521 1519 1517 1514 1512 1511 1509 1508 1506 1506 1505 1505 1504
1562 1576 1581 1584 1584 1580 1580 1581 1583 1587 1596 1597 1594 1590 1581 1577 1575 1572 1569 1567 1563 1560 1557 1553 1549 1545 1542 1538 1535 1531 1528 1526 1523 1521 1518 1516 1514 1513 1511 1509 1508 1507 1507 1506
1563 1577 1577 1578 1577 1577 1579 1580 1581 1584 1588 1592 1588 1586 1581 1577 1575 1572 1570 1568 1565 1562 1559 1555 1552 1549 1546 1543 1539 1536 1533 1530 1528 1525 1522 1520 1518 1517 1515 1513 1511 1510 1509 1508
1566 1575 1577 1579 1577 1577 1578 1578 1579 1580 1583 1584 1583 1582 1575 1575 1574 1572 1571 1568 1566 1563 1561 1558 1555 1552 1549 1546 1543 1540 1538 1535 1533 1530 1527 1525 1523 1520 1518 1517 1515 1513 1512 1510
1570 1575 1582 1586 1580 1581 1582 1575 1576 1577 1577 1579 1582 1579 1574 1574 1573 1572 1571 1569 1567 1565 1562 1560 1557 1555 1552 1550 1547 1544 1542 1539 1536 1534 1531 1529 1527 1524 1522 1521 1519 1517 1515 1513
1570 1577 1585 1588 1585 1585 1576 1566 1568 1572 1572 1573 1573 1572 1572 1572 1572 1572 1571 1569 1568 1566 1564 1561 1559 1557 1554 1552 1550 1547 1545 1542 1540 1537 1534 1532 1530 1528 1526 1524 1522 1520 1518 1516
1565 1574 1585 1590 1588 1582 1570 1565 1566 1570 1570 1567 1569 1569 1570 1571 1572 1571 1570 1569 1568 1566 1564 1562 1560 1558 1556 1554 1552 1550 1548 1545 1542 1540 1537 1535 1533 1532 1530 1527 1525 1523 1522 1520
1568 1571 1582 1587 1582 1579 1566 1559 1561 1567 1570 1561 1564 1566 1569 1570 1574 1572 1570 1569 1568 1566 1565 1563 1561 1559 1558 1556 1554 1552 1550 1548 1545 1543 1540 1539 1537 1535 1533 1531 1529 1527 1525 1523
1571 1576 1580 1584 1582 1572 1558 1558 1562 1575 1567 1557 1560 1563 1566 1568 1570 1570 1569 1568 1568 1566 1565 1563 1562 1560 1559 1557 1556 1554 1552 1550 1548 1546 1543 1541 1540 1538 1536 1534 1532 1530 1528 1525
1569 1575 1578 1582 1581 1572 1554 1556 1560 1557 1553 1555 1558 1561 1564 1566 1567 1568 1568 1568 1567 1566 1565 1564 1562 1561 1560 1558 1557 1555 1554 1552 1550 1548 1546 1544 1543 1541 1539 1537 1535 1533 1531 1528
1561 1560 1562 1564 1559 1548 1547 1547 1549 1550 1551 1554 1557 1560 1563 1565 1566 1567 1568 1568 1567 1566 1565 1564 1563 1562 1560 1559 1558 1556 1555 1553 1552 1551 1549 1547 1546 1544 1542 1541 1539 1536 1534 1531
1552 1550 1553 1553 1545 1543 1543 1544 1546 1548 1550 1553 1556 1559 1561 1563 1565 1566 1567 1567 1567 1566 1565 1565 1563 1562 1561 1560 1559 1557 1556 1555 1554 1553 1551 1550 1548 1547 1546 1544 1542 1539 1536 1534
1542 1546 1548 1547 1540 1538 1538 1540 1543 1546 1549 1552 1555 1558 1560 1562 1564 1565 1566 1566 1566 1566 1565 1565 1564 1563 1562 1560 1559 1558 1557 1556 1555 1554 1553 1552 1551 1550 1548 1546 1544 1542 1540 1537
1534 1536 1540 1538 1530 1531 1531 1534 1539 1543 1546 1550 1553 1556 1559 1561 1562 1564 1565 1565 1565 1565 1565 1564 1564 1563 1562 1561 1560 1559 1558 1557 1556 1555 1554 1553 1553 1551 1550 1549 1547 1545 1543 1540